Home > Weather > Victoria > Past weeks

Flag for USA Past Weather in Victoria, Texas, USA — Yesterday and Last 2 Weeks

Now
75 °F

Passing clouds.


Feels Like: 73 °F
Forecast: 76 / 94 °F
Wind: 5 mph from Southeast

Location: Victoria Regional Airport

Current Time: Jul 31, 2016 at 4:52:48 AM

Latest Report: Jul 31, 2016 at 3:51 AM


Visibility: 10 mi

Pressure: 29.98 "Hg

Humidity: 96%

Dew Point: 74 °F

Location of VictoriaLocation

Past Weather in Victoria — Graph

°F

Victoria Temperature Yesterday

Maximum temperature yesterday: 96 °F (at 4:51 PM)
Minimum temperature yesterday: 74 °F (at 6:51 AM)
Average temperature yesterday: 84 °F

High & Low Weather Summary for the Past Weeks

 TemperatureHumidityPressure
High99 °F (Jul 22, 3:51 PM)100% (Jul 29, 6:51 AM)30.16 "Hg (Jul 29, 6:51 AM)
Low73 °F (Jul 16, 6:51 AM)34% (Jul 22, 3:51 PM)29.85 "Hg (Jul 25, 4:51 PM)
Average84 °F74%30.00 "Hg
* Reported Jul 16 2:51 AM — Jul 31 2:51 AM, Victoria, Weather by CustomWeather, © 2016

Note: Actual official high and low records may vary slightly from our data, if they occured in-between our weather recording intervals... More about our weather records

Advertising

Victoria Weather History for the Previous 24 Hours

Scroll right to see more
 ConditionsComfort  
Time TempWeatherWind HumidityBarometerVisibility
2:51 AM
Sun, Jul 31
75 °FClear.3 mph96%29.98 "Hg10 mi
1:51 AM76 °FClear.3 mph94%29.99 "Hg10 mi
12:51 AM76 °FClear.6 mph94%29.98 "Hg10 mi
11:51 PM
Sat, Jul 30
77 °FClear.5 mph94%29.98 "Hg10 mi
10:51 PM79 °FClear.3 mph88%29.98 "Hg10 mi
9:51 PM81 °FClear.5 mph82%29.96 "Hg10 mi
8:51 PM83 °FSunny.9 mph77%29.95 "Hg10 mi
7:51 PM86 °FSunny.13 mph67%29.94 "Hg10 mi
6:51 PM90 °FSunny.17 mph54%29.94 "Hg10 mi
5:51 PM93 °FSunny.20 mph49%29.94 "Hg10 mi
4:51 PM96 °FPassing clouds.17 mph46%29.94 "Hg10 mi
3:51 PM94 °FMostly cloudy.13 mph48%29.95 "Hg10 mi
2:51 PM95 °FScattered clouds.9 mph44%29.96 "Hg10 mi
1:51 PM94 °FSunny.8 mph44%29.98 "Hg10 mi
12:51 PM93 °FSunny.5 mph47%30.00 "Hg10 mi
11:51 AM91 °FPassing clouds.12 mph52%30.02 "Hg10 mi
10:51 AM89 °FPassing clouds.9 mph57%30.03 "Hg10 mi
10:00 AM86 °FScattered clouds.9 mph70%30.03 "Hg10 mi
9:51 AM85 °FPartly sunny.8 mph75%30.02 "Hg10 mi
8:51 AM82 °FSunny.3 mph88%30.02 "Hg10 mi
7:51 AM78 °FSunny.3 mph93%30.02 "Hg9 mi
6:51 AM74 °FClear.6 mph100%30.01 "Hg7 mi
5:51 AM75 °FLight rain. Partly cloudy.5 mph96%30.00 "Hg7 mi
4:51 AM75 °FPassing clouds.5 mph96%29.99 "Hg8 mi
Weather by CustomWeather, © 2016

See weather overviewHow to use our weather pages